[Date Prev][Date Next][Thread Prev][Thread Next][Date Index][Thread Index]

[jamsat-news:1261] jas2info #185



========================   ºÇ¿·¾ðÊó   ==============================

        Last updated ¡§Sat.22-Apr.-2000 ¡¡16:00 (JST) #185
====================================================================
   
  £±¡Ë¥¢¥Þ¥Á¥å¥¢ÄÌ¿®±ÒÀ±¾ðÊ󡡣ƣϥ·¥ê¡¼¥º¤Îµ°Æ»Í×ÁÇ¡¢¥Æ¥ì¥á¥È¥ê¡¢
¡¡¡¡¡¡£Ñ£Ó£Ï¤Î¾õ¶·Åù¤ò¤Þ¤È¤á¤Æ¤ß¤Þ¤·¤¿¡¥
¡¡¡¡¡¡
¡¡¡¡¡¡£Æ£Ï¡Ý£²£¹¤Î£´·î£²£²Æü¡ÊÅڡˤΥƥì¥á¥È¥ê¤Ï£Ê£Á£Ò£Ì¤Î¥Û¡¼¥à¥Ú¡¼¥¸¤Î
¡¡¡¡±¿ÍÑͽÄê¤Î¤È¤¦¤ê£±£²¡§£°£¶¡Ê£Ê£Ó£Ô¡Ë¤Î¥Ñ¥¹¤Ç¤Ï¥¢¥Ê¥í¥°·Ï±¿ÍѤˤʤäÆ
¡¡¡¡¤ª¤ê¤Þ¤·¤¿.£Ã£×¿®¹æ¤Ç¥Æ¥ì¥á¥È¥ê¤ò£±£²¡§£°£¸¡Á£±£²¡§£±£¸¡Ê£Ê£Ó£Ô¡Ë¤Ë
¡¡¡¡¼õ¿®¤Ç¤­¤Þ¤·¤¿.
¡¡¡¡¸½ºß¤Þ¤Ç¡¢Åö¶É¤Ç¼èÆÀ¤·¤¿¥Ç¡¼¥¿¤Î£±Éô¤ò·ÇºÜ¤·¤Æ¤ª¤­¤Þ¤¹.

¡¡AS18171C1  22Apri2000
¡¡12:08-12:18(JST)
                                  ¡¡              92 8F 9D 85 BB BA BB BB B8  
¡¡HI HI AE C7 88 55 AO 3B 0A 0D 00 2E 67 9B 85 60 94 92 A0 7C BB BA BB BB B8 
¡¡HI HI AE 07 88 55 06 3B FF 0D 00 2E 56 42 7E 49 95 93 B0 BC BB BA BB BA B8 
¡¡HI HI AE 07 88 55 0B 3B FF 0D 00 2E 4B 9F 70 4F 94 92 A1 71 BD BA BB BB B8 
¡¡HI HI AE C7 88 55 09 3B FF 0D 00 2E 43 46 80 60 93 91 B0 9A BB B9 BB BA B8 
¡¡HI HI AE C7 88 55 15 3B FF 0D 00 2E 35 8A 61 56 94 91 9F B1 BB B9 BA BA B8 
¡¡HI HI AE C7 88 55 1A 3B FF 0D 00 2E 1E 9A 72 58 94 91 9F 6B BA B9 BA BA B8 
¡¡HI HI AE C7 88 55 1F 3B FF 0D 00 2E 33 55 85    94 91 A0 7E BA B9 BA BA B8 
¡¡HI HI AE C7 88 55 04 3B CF 0D 00 2E 48 5E       92 90 A0 93 BA B9 BA BA B8   
¡¡HI HI AE C7 88 55 09 3B FF 0D 00 2E 2  B2 6E 60 92 90 9F    BA B9 BA BA B8 
¡¡HI HI AE C7 88 55 13 3B 0A OD 00 2E 80 27 7E 60 92 90 9F 58 BA B8 BA BA B8 
¡¡HI HI AE C7 88 55 A9 3B FF 0D 00 2E 2D 96 7B 60       9E 8A BA B8 B9 B9 B8 
¡¡HI HI AE C7 88 55 1E 3D FF 1A 00 2E 3A  5    60 93 91 B0 7B BA B8 B9 B9 B8
¡¡HI HI AE 07 88 55 03 3B FF 0D 00 2E 35 55  9 3B 94 91 B0 95 B9 B8 B9 B9 B8 
¡¡HI HI AE 07 88 55 08 3B FF 0D 00 2E 91 9C 88 5F 92 91 B0 76 B9 B8 B9 B9 B8 
¡¡HI HI AE C7 88 55 0D 3B FF 0D 00 2E 5F 2A 91 60 93 90 B0 78 B9 B8 B9 B9 B8 
¡¡HI HI AE C7 88 55 13 3B FF 1E 00 2E 67 C4 78 60 94 91 B0 69 B9 B7 B9 B9 B8 
¡¡HI HI AE C7 88 55 18 3B FF 0D 00 2E 94 27 87 60 92 90 B0 7A B9 B7 B9 B9 B8


¡ö¡ö¡ö¡ö¡ö¡¡AS£±£¸£±£´£´£Ð¡¡£²£±£Æ£ò£é£²£°£°£°¡¡¡ö¡ö¡ö¡ö¡ö

8J1JCS>BEACON [04/21/00  12:12:49]:
JAS-2    '97/04/20 03:13:06
9C 03 03 08 00 39 00 00 00 00
00 00 47 F0 5D 7C 4B 94 91 9F
AA 52 A8 01 CC B8 BC BB B9 BA
8J1JCS>BEACON [04/21/00  12:12:50]:D5 02 00 09 00 00 C0 40 00 00
85 3B 26 5B 47 69 6D 81 81 7E
00 00 00 AE 83 B3 F7 00 00 00
8J1JCS>BEACON [04/21/00  12:12:51]:
User not connect.

8J1JCS>BEACON [04/21/00  12:12:52]:
Total    2 File(s)
 No.  Date  UTC    To    From   Size   Subject
0002 03/10 07:55 ALL    K7XQ        69 
0001 03/07 08:52 ALL
8J1JCS>BEACON [04/21/00  12:12:54]:    K7XQ        29 Hello from K7XQ

8J1JCS>BEACON [04/21/00  12:14:49]:
JAS-2    '97/04/20 03:15:06
9C 03 63 08 00 39 00 00 00 00
00 00 47 F0 99 89 5F 92 90 B0
AA 52 A8 01 B7 B8 BC BB B9 BA

8J1JCS>BEACON [04/21/00  12:14:50]:D5 02 00 09 00 00 C0 40 00 00
85 3B 29 57 47 5A 5C 81 82 7F
00 00 00 AE 83 B3 F7 00 00 00

8J1JCS>BEACON [04/21/00  12:14:51]:
User not connect.

8J1JCS>BEACON [04/21/00  12:14:52]:
Total    2 File(s)
 No.  Date  UTC    To    From   Size   Subject
0002 03/10 07:55 ALL    K7XQ        69
0001 03/07 08:52 ALL
8J1JCS>BEACON [04/21/00  12:14:54]:    K7XQ        29 Hello from K7XQ

8J1JCS>BEACON [04/21/00  12:16:49]:
JAS-2    '97/04/20 03:17:06
9C 03 63 08 00 39 00 00 00 00
00 00 47 F0 D5 79 60 93 90 B0
AB 52 A8 02 E2 B8 BB BB B8 BA

8J1JCS>BEACON [04/21/00  12:16:50]:D5 02 00 09 00 00 C0 40 00 00
85 3B 3B 64 47 40 41 81 83 7F
00 00 00 AD 83 B3 F7 00 00 00

8J1JCS>BEACON [04/21/00  12:16:51]:
User not connect.

8J1JCS>BEACON [04/21/00  12:16:53]:
Total    2 File(s)
 No.  Date  UTC    To    From   Size   Subject
0002 03/10 07:55 ALL    K7XQ        69 
0001 03/07 08:52 ALL
8J1JCS>BEACON [04/21/00  12:16:54]:    K7XQ        29 Hello from K7XQ

8J1JCS>BEACON [04/21/00  12:18:49]:
JAS-2    '97/04/20 03:19:06
9C 03 03 08 00 39 00 00 00 00
00 00 47 F1 11 71 50 94 92 9F
AA 52 A8 01 B5 B8 BB BB B8 B9

8J1JCS>BEACON [04/21/00  12:18:50]:D5 02 00 09 00 00 C0 40 00 00
85 3B 47 71 47 37 39 81 84 80
00 00 00 AD 84 B3 F7 00 00 00

8J1JCS>BEACON [04/21/00  12:18:51]:
User not connect.

8J1JCS>BEACON [04/21/00  12:18:52]:
Total    2 File(s)
 No.  Date  UTC    To    From   Size   Subject
0002 03/10 07:55 ALL    K7XQ        69 
0001 03/07 08:52 ALL
8J1JCS>BEACON [04/21/00  12:18:54]:    K7XQ        29 Hello from K7XQ

8J1JCS>BEACON [04/21/00  12:20:49]:
JAS-2    '97/04/20 03:21:06
9C 03 63 08 00 39 00 00 00 00
00 00 47 F1 4D 88 60 93 91 B0
AA 52 A8 02 E2 B8 BB BA B7 B9

8J1JCS>BEACON [04/21/00  12:20:50]:D5 02 00 09 00 00 C0 40 00 00
85 3B 52 7E 47 32 34 82 84 80
00 00 00 AC 84 B3 F7 00 00 00

8J1JCS>BEACON [04/21/00  12:20:51]:
User not connect.

8J1JCS>BEACON [04/21/00  12:20:53]:
Total    2 File(s)
 No.  Date  UTC    To    From   Size   Subject
0002 03/10 07:55 ALL    K7XQ        69 
0001 03/07 08:52 ALL

8J1JCS>BEACON [04/21/00  12:20:54]:    K7XQ        29 Hello from K7XQ

8J1JCS>BEACON [04/21/00  12:22:49]:
JAS-2    '97/04/20 03:23:06
9C 03 63 08 00 39 00 00 00 00
00 00 47 F1 89 98 60 93 90 B0
AA 52 A8 02 E3 B8 BA BA B7 B9

8J1JCS>BEACON [04/21/00  12:22:50]:D5 02 00 09 00 00 C0 40 00 00
85 3B 59 89 47 31 33 82 84 81
00 00 00 AB 84 B3 F7 00 00 00

8J1JCS>BEACON [04/21/00  12:22:51]:
User not connect.
8J1JCS>BEACON [04/21/00  12:22:53]:
Total    2 File(s)
 No.  Date  UTC    To    From   Size   Subject
0002 03/10 07:55 ALL    K7XQ        69 
0001 03/07 08:52 ALL
8J1JCS>BEACON [04/21/00  12:22:54]:    K7XQ        29 Hello from K7XQ

¡¡------------------------¡¡£Æ£Ï-£²£¹¤Îµ°Æ»Í×ÁÇ¡¡------------------------------        
 
¡¡¡¡¢£ µ°Æ»Í×ÁÇ£±¡§¡Öjamsat¡Ýkeps¡§£¹£¸£µ¡×¤è¤ê              
¡¡¡¡¡¡¡¡¡¡¡¡¡¡¡¡¡¡¡¡¡¡¡¡SB KEPS @ AMSAT  $ORB00112.N
¡¡¡¡¡¡¡¡¡¡¡¡¡¡¡¡¡¡¡¡¡¡¡¡2Line Orbital Elements 00112.AMSAT

¡¡HR AMSAT ORBITAL ELEMENTS FOR AMATEUR SATELLITES IN NASA FORMAT
¡¡FROM WA5QGD FORT WORTH,TX April 21, 2000
¡¡SEND SUBSCRIBE/UNSUBSCRIBE TO majordomo@amsat.org ONLY
¡¡BID: ORB00112.N

 ¡¡DECODE 2-LINE ELSETS WITH THE FOLLOWING KEY:
 ¡¡1 AAAAAU 00  0  0 BBBBB.BBBBBBBB  .CCCCCCCC  00000-0  00000-0 0  DDDZ
 ¡¡2 AAAAA EEE.EEEE FFF.FFFF GGGGGGG HHH.HHHH III.IIII JJ.JJJJJJJJKKKKKZ
 ¡¡KEY: A-CATALOGNUM B-EPOCHTIME C-DECAY D-ELSETNUM E-INCLINATION F-RAAN
 ¡¡G-ECCENTRICITY H-ARGPERIGEE I-MNANOM J-MNMOTION K-ORBITNUM Z-CHECKSUM

 ¡¡TO ALL RADIO AMATEURS BT

¡¡FO-29
¡¡1 24278U 96046B   00110.76188783  .00000086  00000-0  12431-3 0 03541
¡¡2 24278 098.5893 026.2850 0351565 018.2773 343.0634 13.52715192181394

 ¢£ µ°Æ»Í×ÁÇ£²¡§¡Öjamsat¡Ýkeps¡§£¹£¸£¶¡×¤è¤ê                         
¡¡¡¡¡¡¡¡¡¡¡¡¡¡¡¡¡¡SB KEPS @ AMSAT  $ORB00112.O
¡¡¡¡¡¡¡¡¡¡¡¡¡¡¡¡¡¡Orbital Elements  00112.OSCAR

¡¡HR AMSAT ORBITAL ELEMENTS FOR OSCAR SATELLITES
¡¡FROM WA5QGD FORT WORTH,TX April 21, 2000
¡¡SEND SUBSCRIBE/UNSUBSCRIBE TO majordomo@amsat.org ONLY
¡¡BID: ORB00112.O
¡¡TO ALL RADIO AMATEURS BT

  Satellite: FO-29
¡¡Catalog number: 24278
¡¡Epoch time:      00110.76188783
¡¡Element set:    0354
¡¡Inclination:      098.5893 deg
¡¡RA of node:       026.2850 deg
¡¡Eccentricity:    0.0351565
¡¡Arg of perigee:   018.2773 deg
¡¡Mean anomaly:     343.0634 deg
¡¡Mean motion:   13.52715192 rev/day
¡¡Decay rate:        8.6e-07 rev/day^2
¡¡Epoch rev:           18139
¡¡Checksum:              320
-------------------¡¡¡¡FO-29¡ÊJAS-2)¤Î¥Æ¥ì¥á¥È¥ê¤Ë´Ø¤¹¤ë¾ðÊó¡¡¡¡----------------------
¡¡
¡¡£²¡Ë£²£²Æü¡ÊÅڡˤΥƥì¥á¥È¥ê¤ÎºÇ¸å¤Î¹Ô¤ò´¹»»¤·¤¿·ë²Ì¤Ç¤¹.

¡¡¡¡¡¡¡¡AS18171C1  22Apri2000
¡¡¡¡¡¡¡¡12:08-12:18(JST)
                                                 
¡¡HI HI AE C7 88 55 18 3B FF 0D 00 2E 94 27 87 60 92 90 B0 7A B9 B7 B9 B9 B8

¡¡¥Æ¥ì¥á¥È¥ê¡¡¡¡	Æâ   ÍÆ	¡¡¡¡¡¡¡¡	´¹»»ÃÍ	ñ °Ì¡¡

¡¡£³£Ã	¼§µ¤¥»¥ó¥µ¡¼£Ú	=     72549.0	[nT]
¡¡£³£Ä	¼§µ¤¥»¥ó¥µ£Ø¼´	=     19117.6	[nT]
¡¡£´£Á	ÂÀÍÛÅÅÃÓȯÀ¸ÅÅή =      1323.5	[mA]
¡¡£´£Â	£Â½¼ÊüÅÅÅÅή	=      -118.4	[mA]
¡¡£´£Ã	£Âü»ÒÅÅ°µ	=	 15.7	[V]
¡¡£´£Ä	£ÂÃæ´Öü»ÒÅÅ°µ	=	  6.9	[V]
¡¡£µ£Á	¥Ð¥¹ÅÅ°µ	¡¡¡¡¡¡¡¡=	 17.3	[V]
¡¡£µ£Â	£Ê£Ô£ÁÁ÷¿®ÅÅÎÏ	=	694.9	[mW]
¡¡£µ£Ã 	¹½Âβ¹ÅÙ£±	=	 10.0	[¡î]
¡¡£µ£Ä	¹½Âβ¹ÅÙ£²	=	 10.8	[¡î]
¡¡£¶£Á	¹½Âβ¹ÅÙ£³	=	 10.0	[¡î]
¡¡£¶£Â	¹½Âβ¹ÅÙ£´	=	 10.0	[¡î]
¡¡£¶£Ã	£Â¥»¥ë²¹ÅÙ	=	 10.4	[¡î]

 * OS¤ÏWindows 2000,Office¡¡2000¡¡¤Ë¤Æ·×»»½èÍý.
¡¡
 ==================================================================================

 ¡¡£´¡Ë£Ê£Á£Ò£Ì ¤Î¥Û¡¼¥à¥Ú¡¼¥¸¤Ë±¿ÍÑͽÄ꤬µ­ºÜ¤µ¤ì¤Æ¤¤¤Þ¤·¤¿¤Î¤Ç¤´¾Ò²ð¤·¤Þ¤¹¡¥
       ¡Ê http://www.jarl.or.jp/Japanese/3_Fuji/new/uy.htm ¡Ë

        ¢£ ¤Õ¤¸£³¹æ¡¿FO¡¼29/JAS-2 ¢£  
  ¡¡
¡¡¡¡¡¡¡¡¡¡¡ö¡ö¡ö¡¡±¿ÍÑͽÄê¤Ë¤Ä¤¤¤Æ¡¡¡ö¡ö¡ö¡¡  

¡¡£°£´·î£²£±Æü¡¡¡Á¡¡£°£µ·î£°£·Æü ¥¢¥Ê¥í¥°·Ï±¿ÍÑ 

¡¡¡ö¤Ê¤ª¡¤±¿ÍÑͽÄê¤ÏÅÔ¹ç¤Ë¤è¤êÊѹ¹¤¹¤ë¤³¤È¤¬¤¢¤ê¤Þ¤¹¤Î¤Ç¤´Î»¾µ´ê¤¤¤Þ¤¹¡£

¡¡¾È²ñÀè¡¡¡§¡¡lab@jarl.or.jp

¡¡ºÇ¿·¤Î¾ðÊó¤Ï¥Æ¥ì¥Û¥ó¥µ¡¼¥Ó¥¹¡Ê£°£³¡Ý£³£¹£´£²¡Ý£±£°£°£°¡Ë¤ò¤ªÊ¹¤­¤¯¤À¤µ¤¤¡£¡¡¡¡
¡¡°Ê¸å¤Î±¿ÍѤˤĤ­¤Þ¤·¤Æ¤Ï£´·î²¼½Ü¤Ë¤ªÃΤ餻¤¤¤¿¤·¤Þ¤¹¡£
 
-----------------------    £Æ£Ï¡Ý£²£°¡ÊJAS-£±£â¡ËÆ»Í×ÁÇ   -------------------------
 ¡¡£µ¡Ë
 ¡¡¢£ µ°Æ»Í×ÁÇ£± ¡§½Ðŵ¤Ï£Æ£Ï-£²£¹¡Ö¤Õ¤¸£³¹æ¡×¤ËƱ¤¸¡¥
  
 ¡¡ FO-20
¡¡¡¡1 20480U 90013C   00111.84339488  .00000039  00000-0  15887-3 0  2208
¡¡¡¡2 20480  99.0424 253.0048 0540378 185.0650 174.4846 12.83270785477924

 ¡¡¢£ µ°Æ»Í×ÁÇ£² ¡§½Ðŵ¤Ï£Æ£Ï¡Ý£²£¹¡Ö¤Õ¤¸£³¹æ¡×¤ËƱ¤¸¡¥
               
 ¡¡¡¡Satellite: FO-20
¡¡¡¡Catalog number: 20480
¡¡¡¡Epoch time:      00111.84339488
¡¡¡¡Element set:     220
¡¡¡¡Inclination:       99.0424 deg
¡¡¡¡RA of node:       253.0048 deg
¡¡¡¡Eccentricity:    0.0540378
¡¡¡¡Arg of perigee:   185.0650 deg
¡¡¡¡Mean anomaly:     174.4846 deg
¡¡¡¡Mean motion:   12.83270785 rev/day
¡¡¡¡Decay rate:        3.9e-07 rev/day^2
¡¡¡¡Epoch rev:           47792
¡¡¡¡Checksum:              301

¡¡--------------------------------------------------------------------------------
¡¡£¶¡Ë[jamsat¡¾bb¡§5248]¤ËRE¡§[jamsat¡¾bb¡§5237]FO¡¾20¤Î¥Ó¡¼¥³¥ó¡¡¤È¤·¤ÆJA6BX¶É¤Î
¡¡¡¡  ¹¾ºê¡¡¾»Ã˻᤬Åê¹Æ¤µ¤ì¤Æ¤¤¤Þ¤·¤¿¤Î¤ÇžºÜ¤µ¤»¤Æ夭¤Þ¤·¤¿.

¡¡¡¡JO2OXL Íî¹ç ¤µ¤ó¡¢

